Regional Weather Roundup
Issued by NWS

Home | Current Version | Previous Version | Text Only | Print | Product List | Glossary Off
Versions: 1 2 3 4 5 6 7 8 9 10 11 12 13 14 15 16 17 18 19 20 21 22 23 24 25 26 27 28 29 30 31 32 33 34 35 36 37 38 39 40 41 42 43 44 45 46 47 48 49 50

000
ASUS44 KMEG 260710
RWRTN
TENNESSEE HOURLY STATE WEATHER ROUNDUP
NATIONAL WEATHER SERVICE MEMPHIS TN
200 AM CDT THU MAY 26 2016

TNZ002-004-019-021-049-052-054-088>092-260800-
WEST TENNESSEE

CITY           SKY/WX    TMP DP  RH WIND       PRES   REMARKS
MEMPHIS INTL   PTCLDY    71  63  75 S9        30.04R
NWS MEMPHIS      N/A     67 N/A N/A MISG        N/A
JACKSON        CLEAR     68  61  78 S9        30.06S
DYERSBURG      CLEAR     66  61  82 CALM      30.04S
UNION CITY     CLEAR     63  63 100 CALM      30.04S
PARIS          PTCLDY    64  61  88 S8        30.06S
LEXINGTON      MOCLDY    63  63 100 CALM      30.07S
$$

TNZ008-025-027-028-033-062-065-066-260800-
NORTH MIDDLE TENNESSEE

CITY           SKY/WX    TMP DP  RH WIND       PRES   REMARKS
NASHVILLE      PTCLDY    66  63  90 CALM      30.09F
CLARKSVILLE    CLEAR     62  61  96 CALM      30.07F
SMYRNA         PTCLDY    66  65  97 S3        30.11S
COOKEVILLE     MOCLDY    64  64 100 CALM      30.13R
CROSSVILLE     CLOUDY    66  57  72 CALM      30.17R
$$

TNZ061-075-076-078-094-096-097-260800-
SOUTH MIDDLE TENNESSEE

CITY           SKY/WX    TMP DP  RH WIND       PRES   REMARKS
FAYETTEVILLE   PTCLDY    70  61  73 CALM      30.11F
TULLAHOMA      PTCLDY    70  59  68 S5        30.13S
WINCHESTER     PTCLDY    68  59  73 S3        30.13S
MCMINNVILLE    MOCLDY    66  66 100 S3        30.13F
COLUMBIA       CLEAR     66  66 100 CALM      30.08S
SHELBYVILLE    PTCLDY    66  63  88 CALM      30.12S
$$

TNZ017-018-042-046-047-260800-
NORTHEAST TENNESSEE

CITY           SKY/WX    TMP DP  RH WIND       PRES   REMARKS
TRI CITIES     CLOUDY    66  64  93 CALM      30.15F
$$

TNZ012-013-036-069-073-074-260800-
CENTRAL EAST TENNESSEE

CITY           SKY/WX    TMP DP  RH WIND       PRES   REMARKS
KNOXVILLE      PTCLDY    68  59  73 CALM      30.11R
OAK RIDGE      PTCLDY    66  61  84 CALM      30.13S
GATLINBURG     CLEAR     63  57  82 CALM      30.12R
$$

TNZ083-085-099-260800-
SOUTHEAST TENNESSEE

CITY           SKY/WX    TMP DP  RH WIND       PRES   REMARKS
CHATTANOOGA    CLOUDY    72  58  61 S6        30.12S
$$

SKY/WX REPORTED AS FAIR MEANS FEW OR NO CLOUDS BELOW
12 THOUSAND FEET.




USA.gov is the U.S. government's official web portal to all federal, state and local government web resources and services.